,,PressureMeas_1m,,PRMeasQMR101_1,,RHStat155_1m_1,,SRMeasQMS101R_1m,,TAStat155_1m_1,,GenWind_1,,GenWind_1,
2017-07-11, 07:00:06,VALID,918.749,VALID,0.0,VALID,97.623,VALID,16.972,VALID,19.182,VALID,18.0,VALID,0.89,
2017-07-11, 07:01:06,VALID,918.76,VALID,0.0,VALID,97.726,VALID,17.55,VALID,19.222,VALID,9.0,VALID,1.068,
2017-07-11, 07:02:06,VALID,918.751,VALID,0.0,VALID,97.645,VALID,18.486,VALID,19.204,VALID,12.0,VALID,1.461,
2017-07-11, 07:03:06,VALID,918.758,VALID,0.0,VALID,97.528,VALID,18.235,VALID,19.191,VALID,316.0,VALID,0.53,
2017-07-11, 07:04:06,VALID,918.755,VALID,0.0,VALID,97.422,VALID,17.804,VALID,19.192,VALID,3.0,VALID,1.152,
2017-07-11, 07:05:06,VALID,918.75,VALID,0.0,VALID,97.295,VALID,17.206,VALID,19.15,VALID,4.0,VALID,1.336,
2017-07-11, 07:06:06,VALID,918.754,VALID,0.0,VALID,97.409,VALID,16.941,VALID,19.123,VALID,360.0,VALID,1.027,
2017-07-11, 07:07:06,VALID,918.752,VALID,0.0,VALID,97.546,VALID,18.582,VALID,19.125,VALID,2.0,VALID,1.164,
2017-07-11, 07:08:06,VALID,918.763,VALID,0.0,VALID,97.553,VALID,20.015,VALID,19.114,VALID,353.0,VALID,0.944,
2017-07-11, 07:09:06,VALID,918.756,VALID,0.0,VALID,97.607,VALID,21.448,VALID,19.129,VALID,1.0,VALID,0.887,
2017-07-11, 07:10:06,VALID,918.755,VALID,0.0,VALID,97.668,VALID,21.803,VALID,19.146,VALID,15.0,VALID,1.128,
2017-07-11, 07:11:06,VALID,918.78,VALID,0.0,VALID,97.75,VALID,22.409,VALID,19.193,VALID,17.0,VALID,1.237,
2017-07-11, 07:12:06,VALID,918.775,VALID,0.0,VALID,97.758,VALID,23.879,VALID,19.202,VALID,4.0,VALID,1.393,
2017-07-11, 07:13:06,VALID,918.788,VALID,0.0,VALID,97.594,VALID,22.78,VALID,19.154,VALID,338.0,VALID,0.85,
2017-07-11, 07:14:06,VALID,918.802,VALID,0.0,VALID,97.708,VALID,22.588,VALID,19.171,VALID,335.0,VALID,0.832,
2017-07-11, 07:15:06,VALID,918.815,VALID,0.0,VALID,97.813,VALID,25.256,VALID,19.19,VALID,351.0,VALID,1.17,
2017-07-11, 07:16:06,VALID,918.829,VALID,0.0,VALID,97.529,VALID,27.45,VALID,19.115,VALID,351.0,VALID,1.538,
2017-07-11, 07:17:06,VALID,918.844,VALID,0.0,VALID,97.447,VALID,29.494,VALID,19.116,VALID,8.0,VALID,0.75,
2017-07-11, 07:18:07,VALID,918.837,VALID,0.0,VALID,97.475,VALID,34.711,VALID,19.149,VALID,15.0,VALID,1.222,
2017-07-11, 07:19:07,VALID,918.857,VALID,0.0,VALID,97.519,VALID,39.441,VALID,19.202,VALID,5.0,VALID,1.213,
2017-07-11, 07:20:07,VALID,918.87,VALID,0.0,VALID,97.345,VALID,43.764,VALID,19.19,VALID,357.0,VALID,0.918,
2017-07-11, 07:21:07,VALID,918.872,VALID,0.0,VALID,97.36,VALID,50.209,VALID,19.192,VALID,5.0,VALID,0.837,
2017-07-11, 07:22:07,VALID,918.882,VALID,0.0,VALID,97.465,VALID,53.032,VALID,19.197,VALID,339.0,VALID,0.7,
2017-07-11, 07:23:07,VALID,918.892,VALID,0.0,VALID,97.485,VALID,53.086,VALID,19.187,VALID,2.0,VALID,0.368,
2017-07-11, 07:24:07,VALID,918.91,VALID,0.0,VALID,97.645,VALID,51.972,VALID,19.216,VALID,356.0,VALID,0.65,
2017-07-11, 07:25:07,VALID,918.923,VALID,0.0,VALID,97.633,VALID,55.367,VALID,19.228,VALID,21.0,VALID,0.513,
2017-07-11, 07:26:07,VALID,918.928,VALID,0.0,VALID,97.835,VALID,56.953,VALID,19.308,VALID,354.0,VALID,0.136,
2017-07-11, 07:27:07,VALID,918.946,VALID,0.0,VALID,97.789,VALID,56.058,VALID,19.318,VALID,14.0,VALID,1.064,
2017-07-11, 07:28:07,VALID,918.961,VALID,0.0,VALID,97.691,VALID,58.057,VALID,19.32,VALID,346.0,VALID,1.12,
2017-07-11, 07:29:07,VALID,918.951,VALID,0.0,VALID,97.405,VALID,60.228,VALID,19.265,VALID,347.0,VALID,1.253,
2017-07-11, 07:30:07,VALID,918.929,VALID,0.0,VALID,97.269,VALID,60.894,VALID,19.238,VALID,5.0,VALID,0.718,
2017-07-11, 07:31:07,VALID,918.918,VALID,0.0,VALID,97.375,VALID,60.482,VALID,19.238,VALID,357.0,VALID,1.42,
2017-07-11, 07:32:07,VALID,918.91,VALID,0.0,VALID,97.354,VALID,62.527,VALID,19.22,VALID,1.0,VALID,1.178,
2017-07-11, 07:33:07,VALID,918.895,VALID,0.0,VALID,97.474,VALID,61.552,VALID,19.229,VALID,3.0,VALID,1.189,
2017-07-11, 07:34:07,VALID,918.894,VALID,0.0,VALID,97.461,VALID,61.402,VALID,19.233,VALID,354.0,VALID,1.34,
2017-07-11, 07:35:07,VALID,918.881,VALID,0.0,VALID,97.446,VALID,62.214,VALID,19.231,VALID,351.0,VALID,1.431,
2017-07-11, 07:36:07,VALID,918.871,VALID,0.0,VALID,97.407,VALID,63.352,VALID,19.214,VALID,346.0,VALID,1.048,
2017-07-11, 07:37:07,VALID,918.844,VALID,0.0,VALID,97.414,VALID,71.573,VALID,19.211,VALID,4.0,VALID,1.407,
2017-07-11, 07:38:07,VALID,918.831,VALID,0.0,VALID,97.347,VALID,81.163,VALID,19.207,VALID,12.0,VALID,1.498,
2017-07-11, 07:39:07,VALID,918.833,VALID,0.0,VALID,97.409,VALID,92.77,VALID,19.243,VALID,29.0,VALID,1.089,
2017-07-11, 07:40:07,VALID,918.827,VALID,0.0,VALID,97.474,VALID,99.78,VALID,19.286,VALID,10.0,VALID,1.084,
2017-07-11, 07:41:07,VALID,918.826,VALID,0.0,VALID,97.367,VALID,101.318,VALID,19.298,VALID,351.0,VALID,1.401,
2017-07-11, 07:42:07,VALID,918.823,VALID,0.0,VALID,97.214,VALID,98.938,VALID,19.316,VALID,11.0,VALID,1.168,
2017-07-11, 07:43:07,VALID,918.822,VALID,0.0,VALID,97.49,VALID,97.528,VALID,19.387,VALID,334.0,VALID,0.766,
2017-07-11, 07:44:07,VALID,918.824,VALID,0.0,VALID,97.425,VALID,101.942,VALID,19.415,VALID,350.0,VALID,0.912,
2017-07-11, 07:45:07,VALID,918.808,VALID,0.0,VALID,96.912,VALID,103.507,VALID,19.35,VALID,360.0,VALID,1.303,
2017-07-11, 07:46:07,VALID,918.788,VALID,0.0,VALID,96.327,VALID,104.203,VALID,19.294,VALID,356.0,VALID,1.791,
2017-07-11, 07:47:07,VALID,918.787,VALID,0.0,VALID,96.286,VALID,105.317,VALID,19.313,VALID,346.0,VALID,0.935,
2017-07-11, 07:48:07,VALID,918.779,VALID,0.0,VALID,96.638,VALID,105.54,VALID,19.37,VALID,355.0,VALID,0.834,
2017-07-11, 07:49:07,VALID,918.759,VALID,0.0,VALID,96.912,VALID,107.612,VALID,19.403,VALID,347.0,VALID,0.536,
2017-07-11, 07:50:07,VALID,918.747,VALID,0.0,VALID,96.942,VALID,109.785,VALID,19.414,VALID,349.0,VALID,0.305,
2017-07-11, 07:51:07,VALID,918.732,VALID,0.0,VALID,96.88,VALID,113.649,VALID,19.414,VALID,4.0,VALID,1.261,
2017-07-11, 07:52:07,VALID,918.743,VALID,0.0,VALID,97.006,VALID,112.357,VALID,19.462,VALID,344.0,VALID,0.457,
2017-07-11, 07:53:07,VALID,918.751,VALID,0.0,VALID,97.079,VALID,116.714,VALID,19.499,VALID,337.0,VALID,0.207,
2017-07-11, 07:54:07,VALID,918.751,VALID,0.0,VALID,96.74,VALID,120.325,VALID,19.474,VALID,1.0,VALID,0.803,
2017-07-11, 07:55:07,VALID,918.76,VALID,0.0,VALID,96.514,VALID,127.484,VALID,19.442,VALID,335.0,VALID,0.648,
2017-07-11, 07:56:07,VALID,918.759,VALID,0.0,VALID,96.707,VALID,137.034,VALID,19.489,VALID,24.0,VALID,0.274,
2017-07-11, 07:57:07,VALID,918.781,VALID,0.0,VALID,97.25,VALID,155.19,VALID,19.61,VALID,333.0,VALID,0.119,
2017-07-11, 07:58:07,VALID,918.795,VALID,0.0,VALID,96.815,VALID,175.383,VALID,19.603,VALID,320.0,VALID,0.267,
2017-07-11, 07:59:07,VALID,918.8,VALID,0.0,VALID,96.473,VALID,193.765,VALID,19.613,VALID,303.0,VALID,0.03,
2017-07-11, 08:00:07,VALID,918.813,VALID,0.0,VALID,96.015,VALID,203.144,VALID,19.617,VALID,255.0,VALID,0.289,
2017-07-11, 08:01:07,VALID,918.839,VALID,0.0,VALID,96.428,VALID,199.482,VALID,19.655,VALID,241.0,VALID,0.132,
2017-07-11, 08:02:07,VALID,918.855,VALID,0.0,VALID,96.109,VALID,219.232,VALID,19.638,VALID,256.0,VALID,0.0,
2017-07-11, 08:03:07,VALID,918.869,VALID,0.0,VALID,96.211,VALID,221.31,VALID,19.698,VALID,295.0,VALID,0.025,
2017-07-11, 08:04:07,VALID,918.888,VALID,0.0,VALID,96.43,VALID,220.735,VALID,19.812,VALID,302.0,VALID,0.097,
2017-07-11, 08:05:07,VALID,918.921,VALID,0.0,VALID,95.678,VALID,357.771,VALID,19.921,VALID,215.0,VALID,0.006,
2017-07-11, 08:06:07,VALID,918.941,VALID,0.0,VALID,95.506,VALID,355.491,VALID,20.095,VALID,330.0,VALID,0.569,
2017-07-11, 08:07:07,VALID,918.945,VALID,0.0,VALID,94.0,VALID,383.503,VALID,20.245,VALID,1.0,VALID,0.546,
2017-07-11, 08:08:07,VALID,918.972,VALID,0.0,VALID,91.658,VALID,353.11,VALID,20.357,VALID,335.0,VALID,0.71,
2017-07-11, 08:09:07,VALID,918.987,VALID,0.0,VALID,90.35,VALID,344.076,VALID,20.432,VALID,342.0,VALID,0.706,
2017-07-11, 08:10:07,VALID,918.994,VALID,0.0,VALID,89.985,VALID,282.581,VALID,20.526,VALID,356.0,VALID,0.45,
2017-07-11, 08:11:07,VALID,918.992,VALID,0.0,VALID,90.861,VALID,267.134,VALID,20.614,VALID,13.0,VALID,0.117,
2017-07-11, 08:12:07,VALID,918.984,VALID,0.0,VALID,91.26,VALID,263.996,VALID,20.715,VALID,47.0,VALID,0.716,
2017-07-11, 08:13:07,VALID,918.994,VALID,0.0,VALID,89.843,VALID,263.47,VALID,20.756,VALID,12.0,VALID,0.727,
2017-07-11, 08:14:07,VALID,918.982,VALID,0.0,VALID,89.166,VALID,275.237,VALID,20.686,VALID,41.0,VALID,1.014,
2017-07-11, 08:15:07,VALID,918.997,VALID,0.0,VALID,89.833,VALID,277.806,VALID,20.681,VALID,4.0,VALID,0.82,
2017-07-11, 08:16:07,VALID,919.005,VALID,0.0,VALID,89.704,VALID,271.203,VALID,20.709,VALID,351.0,VALID,0.306,
2017-07-11, 08:17:07,VALID,919.01,VALID,0.0,VALID,90.305,VALID,288.809,VALID,20.802,VALID,40.0,VALID,0.29,
2017-07-11, 08:18:07,VALID,919.024,VALID,0.0,VALID,90.36,VALID,291.208,VALID,20.88,VALID,51.0,VALID,0.051,
2017-07-11, 08:19:07,VALID,919.029,VALID,0.0,VALID,88.491,VALID,317.019,VALID,20.931,VALID,50.0,VALID,0.0,
2017-07-11, 08:20:07,VALID,919.04,VALID,0.0,VALID,87.406,VALID,317.498,VALID,20.936,VALID,48.0,VALID,0.0,
2017-07-11, 08:21:07,VALID,919.043,VALID,0.0,VALID,88.337,VALID,361.045,VALID,20.959,VALID,352.0,VALID,0.116,
2017-07-11, 08:22:07,VALID,919.047,VALID,0.0,VALID,88.346,VALID,469.819,VALID,21.021,VALID,330.0,VALID,0.353,
2017-07-11, 08:23:07,VALID,919.052,VALID,0.0,VALID,87.376,VALID,440.04,VALID,21.043,VALID,351.0,VALID,0.531,
2017-07-11, 08:24:07,VALID,919.065,VALID,0.0,VALID,88.666,VALID,558.302,VALID,21.109,VALID,63.0,VALID,0.232,
2017-07-11, 08:25:07,VALID,919.083,VALID,0.0,VALID,88.018,VALID,665.023,VALID,21.18,VALID,161.0,VALID,0.401,
2017-07-11, 08:26:07,VALID,919.1,VALID,0.0,VALID,88.105,VALID,689.976,VALID,21.336,VALID,178.0,VALID,0.0,
2017-07-11, 08:27:07,VALID,919.124,VALID,0.0,VALID,86.898,VALID,636.276,VALID,21.486,VALID,131.0,VALID,0.406,
2017-07-11, 08:28:07,VALID,919.149,VALID,0.0,VALID,85.825,VALID,596.637,VALID,21.552,VALID,136.0,VALID,0.282,
2017-07-11, 08:29:07,VALID,919.158,VALID,0.0,VALID,85.784,VALID,582.538,VALID,21.658,VALID,109.0,VALID,0.103,
2017-07-11, 08:30:07,VALID,919.165,VALID,0.0,VALID,87.665,VALID,503.485,VALID,21.838,VALID,87.0,VALID,0.455,
2017-07-11, 08:31:07,VALID,919.167,VALID,0.0,VALID,84.914,VALID,363.057,VALID,21.867,VALID,76.0,VALID,0.989,
2017-07-11, 08:32:07,VALID,919.181,VALID,0.0,VALID,84.778,VALID,323.438,VALID,21.672,VALID,69.0,VALID,0.693,
2017-07-11, 08:33:07,VALID,919.177,VALID,0.0,VALID,86.08,VALID,299.188,VALID,21.51,VALID,69.0,VALID,1.371,
2017-07-11, 08:34:07,VALID,919.195,VALID,0.0,VALID,88.057,VALID,280.945,VALID,21.49,VALID,53.0,VALID,0.903,
2017-07-11, 08:35:07,VALID,919.194,VALID,0.0,VALID,87.123,VALID,270.81,VALID,21.571,VALID,30.0,VALID,0.904,
2017-07-11, 08:36:07,VALID,919.199,VALID,0.0,VALID,86.808,VALID,266.353,VALID,21.625,VALID,23.0,VALID,0.889,
2017-07-11, 08:37:07,VALID,919.203,VALID,0.0,VALID,84.923,VALID,261.982,VALID,21.651,VALID,18.0,VALID,1.059,
2017-07-11, 08:38:07,VALID,919.203,VALID,0.0,VALID,83.67,VALID,257.96,VALID,21.561,VALID,10.0,VALID,0.756,
2017-07-11, 08:39:07,VALID,919.206,VALID,0.0,VALID,84.629,VALID,256.769,VALID,21.42,VALID,10.0,VALID,0.816,
2017-07-11, 08:40:07,VALID,919.204,VALID,0.0,VALID,85.585,VALID,257.844,VALID,21.363,VALID,6.0,VALID,0.796,
2017-07-11, 08:41:07,VALID,919.207,VALID,0.0,VALID,86.717,VALID,260.98,VALID,21.405,VALID,17.0,VALID,0.541,
2017-07-11, 08:42:07,VALID,919.21,VALID,0.0,VALID,84.828,VALID,270.677,VALID,21.372,VALID,15.0,VALID,0.714,
2017-07-11, 08:43:07,VALID,919.212,VALID,0.0,VALID,84.754,VALID,284.745,VALID,21.225,VALID,15.0,VALID,0.049,
2017-07-11, 08:44:07,VALID,919.2,VALID,0.0,VALID,86.088,VALID,302.934,VALID,21.232,VALID,33.0,VALID,0.271,
2017-07-11, 08:45:07,VALID,919.2,VALID,0.0,VALID,85.106,VALID,337.861,VALID,21.262,VALID,71.0,VALID,0.211,
2017-07-11, 08:46:07,VALID,919.165,VALID,0.0,VALID,86.784,VALID,370.876,VALID,21.324,VALID,63.0,VALID,0.305,
2017-07-11, 08:47:07,VALID,919.147,VALID,0.0,VALID,86.303,VALID,394.273,VALID,21.469,VALID,53.0,VALID,0.456,
2017-07-11, 08:48:07,VALID,919.138,VALID,0.0,VALID,86.487,VALID,433.608,VALID,21.601,VALID,49.0,VALID,0.446,
2017-07-11, 08:49:07,VALID,919.129,VALID,0.0,VALID,84.009,VALID,468.164,VALID,21.692,VALID,66.0,VALID,0.455,
2017-07-11, 08:50:07,VALID,919.122,VALID,0.0,VALID,83.458,VALID,427.172,VALID,21.605,VALID,63.0,VALID,0.369,
2017-07-11, 08:51:07,VALID,919.135,VALID,0.0,VALID,84.443,VALID,405.693,VALID,21.565,VALID,35.0,VALID,0.607,
2017-07-11, 08:52:07,VALID,919.142,VALID,0.0,VALID,85.241,VALID,407.413,VALID,21.605,VALID,25.0,VALID,0.493,
2017-07-11, 08:53:07,VALID,919.154,VALID,0.0,VALID,84.675,VALID,421.584,VALID,21.733,VALID,18.0,VALID,0.041,
2017-07-11, 08:54:07,VALID,919.167,VALID,0.0,VALID,84.156,VALID,411.109,VALID,21.864,VALID,350.0,VALID,0.254,
2017-07-11, 08:55:07,VALID,919.191,VALID,0.0,VALID,82.424,VALID,478.831,VALID,21.953,VALID,316.0,VALID,0.143,
2017-07-11, 08:56:07,VALID,919.209,VALID,0.0,VALID,82.009,VALID,446.734,VALID,21.938,VALID,308.0,VALID,0.016,
2017-07-11, 08:57:07,VALID,919.22,VALID,0.0,VALID,81.135,VALID,489.166,VALID,21.977,VALID,292.0,VALID,0.021,
2017-07-11, 08:58:07,VALID,919.228,VALID,0.0,VALID,80.998,VALID,441.998,VALID,22.038,VALID,280.0,VALID,0.013,
2017-07-11, 08:59:07,VALID,919.224,VALID,0.0,VALID,81.222,VALID,469.079,VALID,22.138,VALID,270.0,VALID,0.012,
2017-07-11, 09:00:07,VALID,919.21,VALID,0.0,VALID,81.055,VALID,471.955,VALID,22.225,VALID,255.0,VALID,0.014,
2017-07-11, 09:01:07,VALID,919.2,VALID,0.0,VALID,81.644,VALID,442.897,VALID,22.283,VALID,150.0,VALID,0.045,
2017-07-11, 09:02:07,VALID,919.186,VALID,0.0,VALID,80.769,VALID,490.194,VALID,22.234,VALID,58.0,VALID,0.198,
2017-07-11, 09:03:07,VALID,919.164,VALID,0.0,VALID,81.048,VALID,501.267,VALID,22.168,VALID,45.0,VALID,0.023,
2017-07-11, 09:04:07,VALID,919.147,VALID,0.0,VALID,80.855,VALID,555.41,VALID,22.212,VALID,23.0,VALID,0.024,
2017-07-11, 09:05:07,VALID,919.118,VALID,0.0,VALID,81.082,VALID,539.918,VALID,22.407,VALID,254.0,VALID,0.157,
2017-07-11, 09:06:07,VALID,919.097,VALID,0.0,VALID,80.055,VALID,560.126,VALID,22.571,VALID,248.0,VALID,0.201,
2017-07-11, 09:07:07,VALID,919.087,VALID,0.0,VALID,81.184,VALID,548.372,VALID,22.727,VALID,236.0,VALID,0.153,
2017-07-11, 09:08:07,VALID,919.082,VALID,0.0,VALID,79.091,VALID,569.11,VALID,22.914,VALID,221.0,VALID,0.449,
2017-07-11, 09:09:07,VALID,919.086,VALID,0.0,VALID,79.032,VALID,577.324,VALID,23.004,VALID,199.0,VALID,0.278,
2017-07-11, 09:10:07,VALID,919.093,VALID,0.0,VALID,77.94,VALID,630.209,VALID,23.077,VALID,201.0,VALID,0.136,
2017-07-11, 09:11:07,VALID,919.108,VALID,0.0,VALID,78.787,VALID,560.522,VALID,23.121,VALID,202.0,VALID,0.034,
2017-07-11, 09:12:07,VALID,919.121,VALID,0.0,VALID,80.055,VALID,464.488,VALID,23.289,VALID,64.0,VALID,0.156,
2017-07-11, 09:13:07,VALID,919.151,VALID,0.0,VALID,77.772,VALID,535.929,VALID,23.296,VALID,50.0,VALID,0.447,
2017-07-11, 09:14:07,VALID,919.174,VALID,0.0,VALID,78.429,VALID,652.145,VALID,23.118,VALID,60.0,VALID,0.668,
2017-07-11, 09:15:07,VALID,919.193,VALID,0.0,VALID,77.943,VALID,739.39,VALID,22.989,VALID,43.0,VALID,0.621,
2017-07-11, 09:16:07,VALID,919.207,VALID,0.0,VALID,79.923,VALID,684.277,VALID,22.865,VALID,37.0,VALID,0.519,
2017-07-11, 09:17:07,VALID,919.205,VALID,0.0,VALID,80.857,VALID,436.318,VALID,22.951,VALID,14.0,VALID,0.945,
2017-07-11, 09:18:07,VALID,919.226,VALID,0.0,VALID,79.838,VALID,381.037,VALID,23.11,VALID,45.0,VALID,0.409,
2017-07-11, 09:19:07,VALID,919.229,VALID,0.0,VALID,78.886,VALID,389.433,VALID,23.18,VALID,77.0,VALID,0.195,
2017-07-11, 09:20:07,VALID,919.234,VALID,0.0,VALID,79.141,VALID,453.307,VALID,23.188,VALID,66.0,VALID,0.721,
2017-07-11, 09:21:07,VALID,919.238,VALID,0.0,VALID,78.838,VALID,461.201,VALID,22.976,VALID,84.0,VALID,1.049,
2017-07-11, 09:22:07,VALID,919.242,VALID,0.0,VALID,80.057,VALID,506.749,VALID,22.639,VALID,107.0,VALID,0.639,
2017-07-11, 09:23:07,VALID,919.237,VALID,0.0,VALID,81.344,VALID,631.335,VALID,22.551,VALID,86.0,VALID,1.21,
2017-07-11, 09:24:07,VALID,919.233,VALID,0.0,VALID,82.548,VALID,601.143,VALID,22.477,VALID,80.0,VALID,1.1,
2017-07-11, 09:25:07,VALID,919.234,VALID,0.0,VALID,82.357,VALID,654.832,VALID,22.528,VALID,88.0,VALID,0.856,
2017-07-11, 09:26:07,VALID,919.232,VALID,0.0,VALID,82.088,VALID,702.383,VALID,22.634,VALID,55.0,VALID,1.086,
2017-07-11, 09:27:06,VALID,919.246,VALID,0.0,VALID,79.981,VALID,654.549,VALID,22.726,VALID,63.0,VALID,0.7,
2017-07-11, 09:28:06,VALID,919.229,VALID,0.0,VALID,81.239,VALID,650.435,VALID,22.831,VALID,67.0,VALID,0.075,
2017-07-11, 09:29:06,VALID,919.24,VALID,0.0,VALID,79.48,VALID,617.375,VALID,23.131,VALID,209.0,VALID,0.457,
2017-07-11, 09:30:06,VALID,919.212,VALID,0.0,VALID,79.45,VALID,744.636,VALID,23.396,VALID,323.0,VALID,0.558,
2017-07-11, 09:31:06,VALID,919.22,VALID,0.0,VALID,76.781,VALID,772.885,VALID,23.616,VALID,212.0,VALID,0.707,
2017-07-11, 09:32:06,VALID,919.195,VALID,0.0,VALID,76.27,VALID,785.618,VALID,23.642,VALID,233.0,VALID,0.708,
2017-07-11, 09:33:06,VALID,919.184,VALID,0.0,VALID,76.362,VALID,766.803,VALID,23.584,VALID,244.0,VALID,1.23,
2017-07-11, 09:34:06,VALID,919.164,VALID,0.0,VALID,75.967,VALID,739.946,VALID,23.477,VALID,217.0,VALID,0.683,
2017-07-11, 09:35:06,VALID,919.141,VALID,0.0,VALID,75.741,VALID,708.666,VALID,23.459,VALID,216.0,VALID,1.13,
2017-07-11, 09:36:06,VALID,919.116,VALID,0.0,VALID,76.354,VALID,664.55,VALID,23.438,VALID,207.0,VALID,0.86,
2017-07-11, 09:37:06,VALID,919.101,VALID,0.0,VALID,77.05,VALID,672.381,VALID,23.556,VALID,155.0,VALID,0.373,
2017-07-11, 09:38:06,VALID,919.085,VALID,0.0,VALID,77.405,VALID,583.521,VALID,23.717,VALID,186.0,VALID,0.358,
2017-07-11, 09:39:06,VALID,919.075,VALID,0.0,VALID,76.961,VALID,688.714,VALID,23.819,VALID,261.0,VALID,0.959,
2017-07-11, 09:40:06,VALID,919.089,VALID,0.0,VALID,77.033,VALID,505.493,VALID,23.804,VALID,207.0,VALID,0.969,
2017-07-11, 09:41:06,VALID,919.07,VALID,0.0,VALID,76.508,VALID,635.371,VALID,23.83,VALID,201.0,VALID,1.348,
2017-07-11, 09:42:06,VALID,919.081,VALID,0.0,VALID,76.999,VALID,828.617,VALID,23.854,VALID,198.0,VALID,1.689,
2017-07-11, 09:43:06,VALID,919.08,VALID,0.0,VALID,76.845,VALID,824.565,VALID,23.919,VALID,170.0,VALID,1.547,
2017-07-11, 09:44:06,VALID,919.103,VALID,0.0,VALID,77.086,VALID,717.576,VALID,23.992,VALID,270.0,VALID,0.717,
2017-07-11, 09:45:06,VALID,919.105,VALID,0.0,VALID,77.435,VALID,685.036,VALID,24.098,VALID,260.0,VALID,0.532,
2017-07-11, 09:46:06,VALID,919.12,VALID,0.0,VALID,75.133,VALID,791.403,VALID,24.217,VALID,176.0,VALID,0.361,
2017-07-11, 09:47:06,VALID,919.119,VALID,0.0,VALID,76.628,VALID,480.343,VALID,24.429,VALID,183.0,VALID,0.725,
2017-07-11, 09:48:06,VALID,919.131,VALID,0.0,VALID,74.865,VALID,516.529,VALID,24.494,VALID,244.0,VALID,0.777,
2017-07-11, 09:49:06,VALID,919.139,VALID,0.0,VALID,74.312,VALID,525.589,VALID,24.317,VALID,203.0,VALID,1.391,
2017-07-11, 09:50:06,VALID,919.14,VALID,0.0,VALID,74.382,VALID,584.253,VALID,24.134,VALID,244.0,VALID,0.912,
2017-07-11, 09:51:06,VALID,919.124,VALID,0.0,VALID,75.911,VALID,611.453,VALID,24.036,VALID,234.0,VALID,0.382,
2017-07-11, 09:52:06,VALID,919.118,VALID,0.0,VALID,76.704,VALID,431.807,VALID,24.161,VALID,263.0,VALID,0.163,
2017-07-11, 09:53:06,VALID,919.12,VALID,0.0,VALID,75.972,VALID,390.551,VALID,24.292,VALID,161.0,VALID,0.039,
2017-07-11, 09:54:06,VALID,919.128,VALID,0.0,VALID,76.106,VALID,374.969,VALID,24.384,VALID,257.0,VALID,1.143,
2017-07-11, 09:55:06,VALID,919.122,VALID,0.0,VALID,74.41,VALID,364.402,VALID,24.038,VALID,244.0,VALID,2.07,
2017-07-11, 09:56:06,VALID,919.124,VALID,0.0,VALID,76.537,VALID,358.381,VALID,23.588,VALID,230.0,VALID,1.584,
2017-07-11, 09:57:06,VALID,919.13,VALID,0.0,VALID,78.471,VALID,352.852,VALID,23.397,VALID,230.0,VALID,1.02,
2017-07-11, 09:58:06,VALID,919.128,VALID,0.0,VALID,78.671,VALID,353.985,VALID,23.316,VALID,259.0,VALID,0.729,
2017-07-11, 09:59:06,VALID,919.135,VALID,0.0,VALID,79.392,VALID,362.723,VALID,23.33,VALID,262.0,VALID,0.631,
2017-07-11, 10:00:06,VALID,919.133,VALID,0.0,VALID,79.759,VALID,380.853,VALID,23.3,VALID,258.0,VALID,0.717,
2017-07-11, 10:01:06,VALID,919.13,VALID,0.0,VALID,79.774,VALID,407.942,VALID,23.328,VALID,259.0,VALID,0.579,
2017-07-11, 10:02:06,VALID,919.144,VALID,0.0,VALID,79.033,VALID,501.614,VALID,23.373,VALID,237.0,VALID,1.268,
2017-07-11, 10:03:06,VALID,919.153,VALID,0.0,VALID,78.784,VALID,639.139,VALID,23.377,VALID,265.0,VALID,1.347,
2017-07-11, 10:04:06,VALID,919.143,VALID,0.0,VALID,78.15,VALID,542.411,VALID,23.342,VALID,296.0,VALID,0.645,
2017-07-11, 10:05:06,VALID,919.15,VALID,0.0,VALID,79.594,VALID,488.892,VALID,23.406,VALID,273.0,VALID,0.833,
2017-07-11, 10:06:06,VALID,919.162,VALID,0.0,VALID,79.349,VALID,462.507,VALID,23.46,VALID,251.0,VALID,0.404,
2017-07-11, 10:07:06,VALID,919.169,VALID,0.0,VALID,77.996,VALID,427.961,VALID,23.621,VALID,222.0,VALID,0.016,
2017-07-11, 10:08:06,VALID,919.192,VALID,0.0,VALID,78.478,VALID,397.966,VALID,23.899,VALID,289.0,VALID,0.349,
2017-07-11, 10:09:06,VALID,919.198,VALID,0.0,VALID,76.929,VALID,366.623,VALID,23.952,VALID,229.0,VALID,0.925,
2017-07-11, 10:10:06,VALID,919.182,VALID,0.0,VALID,76.164,VALID,321.59,VALID,23.847,VALID,179.0,VALID,0.68,
2017-07-11, 10:11:06,VALID,919.195,VALID,0.0,VALID,77.094,VALID,292.722,VALID,23.836,VALID,254.0,VALID,0.384,
2017-07-11, 10:12:06,VALID,919.205,VALID,0.0,VALID,77.37,VALID,274.854,VALID,23.855,VALID,270.0,VALID,1.062,
2017-07-11, 10:13:06,VALID,919.216,VALID,0.0,VALID,76.95,VALID,267.532,VALID,23.656,VALID,251.0,VALID,1.261,
2017-07-11, 10:14:06,VALID,919.224,VALID,0.0,VALID,77.647,VALID,280.03,VALID,23.429,VALID,278.0,VALID,0.98,
2017-07-11, 10:15:06,VALID,919.218,VALID,0.0,VALID,77.887,VALID,294.954,VALID,23.324,VALID,316.0,VALID,0.681,
2017-07-11, 10:16:06,VALID,919.242,VALID,0.0,VALID,78.547,VALID,286.826,VALID,23.391,VALID,314.0,VALID,0.171,
2017-07-11, 10:17:06,VALID,919.26,VALID,0.0,VALID,79.053,VALID,250.869,VALID,23.491,VALID,233.0,VALID,0.731,
2017-07-11, 10:18:06,VALID,919.277,VALID,0.0,VALID,78.188,VALID,227.163,VALID,23.558,VALID,234.0,VALID,0.52,
2017-07-11, 10:19:06,VALID,919.294,VALID,0.0,VALID,79.053,VALID,232.799,VALID,23.563,VALID,260.0,VALID,0.784,
2017-07-11, 10:20:06,VALID,919.298,VALID,0.0,VALID,80.345,VALID,246.043,VALID,23.354,VALID,274.0,VALID,1.594,
2017-07-11, 10:21:06,VALID,919.286,VALID,0.0,VALID,78.536,VALID,240.819,VALID,23.12,VALID,249.0,VALID,1.389,
2017-07-11, 10:22:06,VALID,919.289,VALID,0.0,VALID,79.214,VALID,222.027,VALID,23.045,VALID,248.0,VALID,0.751,
2017-07-11, 10:23:06,VALID,919.286,VALID,0.0,VALID,78.455,VALID,199.944,VALID,23.002,VALID,257.0,VALID,1.119,
2017-07-11, 10:24:06,VALID,919.283,VALID,0.0,VALID,79.055,VALID,185.19,VALID,23.014,VALID,258.0,VALID,0.539,
2017-07-11, 10:25:06,VALID,919.271,VALID,0.0,VALID,80.585,VALID,177.555,VALID,23.104,VALID,332.0,VALID,0.197,
2017-07-11, 10:26:06,VALID,919.282,VALID,0.0,VALID,80.95,VALID,178.87,VALID,23.232,VALID,276.0,VALID,0.172,
2017-07-11, 10:27:06,VALID,919.281,VALID,0.0,VALID,81.428,VALID,188.704,VALID,23.243,VALID,215.0,VALID,0.543,
2017-07-11, 10:28:06,VALID,919.293,VALID,0.0,VALID,81.752,VALID,205.11,VALID,23.248,VALID,272.0,VALID,0.18,
2017-07-11, 10:29:06,VALID,919.302,VALID,0.0,VALID,82.618,VALID,224.32,VALID,23.342,VALID,34.0,VALID,0.562,
2017-07-11, 10:30:06,VALID,919.316,VALID,0.0,VALID,81.022,VALID,245.229,VALID,23.498,VALID,30.0,VALID,0.216,
2017-07-11, 10:31:06,VALID,919.315,VALID,0.0,VALID,80.279,VALID,266.284,VALID,23.695,VALID,82.0,VALID,0.161,
2017-07-11, 10:32:06,VALID,919.319,VALID,0.0,VALID,80.15,VALID,285.934,VALID,23.841,VALID,330.0,VALID,0.045,
2017-07-11, 10:33:06,VALID,919.297,VALID,0.0,VALID,80.551,VALID,294.213,VALID,23.952,VALID,11.0,VALID,0.406,
2017-07-11, 10:34:06,VALID,919.303,VALID,0.0,VALID,79.801,VALID,291.486,VALID,24.059,VALID,349.0,VALID,0.285,
2017-07-11, 10:35:06,VALID,919.288,VALID,0.0,VALID,78.236,VALID,277.564,VALID,24.058,VALID,256.0,VALID,0.037,
2017-07-11, 10:36:06,VALID,919.256,VALID,0.0,VALID,79.574,VALID,264.288,VALID,24.08,VALID,360.0,VALID,0.212,